AK4FD Weather Reports


time (UTC)temp
C
wind
direction
speed
KPH
gust
KPH
rain 1hr
cm
rain 24hr
cm
rain mn
cm
humidity
%
barometer
mb
20260508145344 16 109 3.2 6.4 0.00 0.00 0.00 51 1019.0
20260508144841 16 39 3.2 3.2 0.00 0.00 0.00 58 1019.0
20260508144339 15 81 1.6 3.2 0.00 0.00 0.00 57 1018.9
20260508143836 15 121 3.2 6.4 0.00 0.00 0.00 54 1019.1
20260508143333 15 68 1.6 3.2 0.00 0.00 0.00 57 1019.2
20260508142830 15 89 0.0 3.2 0.00 0.00 0.00 58 1019.2
20260508142327 15 143 3.2 6.4 0.00 0.00 0.00 55 1019.0
20260508141823 15 100 8.0 8.0 0.00 0.00 0.00 58 1019.1
20260508141320 15 63 0.0 3.2 0.00 0.00 0.00 57 1019.1
20260508140818 15 93 6.4 8.0 0.00 0.00 0.00 55 1019.0
20260508140315 15 89 0.0 3.2 0.00 0.00 0.00 57 1019.0
20260508135810 15 39 3.2 4.8 0.00 0.00 0.00 60 1019.1
20260508135307 15 76 0.0 3.2 0.00 0.00 0.00 64 1018.7
20260508134803 14 59 3.2 6.4 0.00 0.00 0.00 63 1019.1
20260508134300 14 88 1.6 3.2 0.00 0.00 0.00 62 1018.9
20260508133756 14 76 3.2 4.8 0.00 0.00 0.00 65 1018.9
20260508133254 14 71 3.2 3.2 0.00 0.00 0.00 66 1019.0
20260508132752 13 93 3.2 3.2 0.00 0.00 0.00 69 1019.0
20260508132249 13 82 4.8 4.8 0.00 0.00 0.00 68 1018.9
20260508131745 13 74 1.6 3.2 0.00 0.00 0.00 77 1018.9
20260508131241 13 82 1.6 3.2 0.00 0.00 0.00 75 1018.9
20260508130737 12 103 0.0 3.2 0.00 0.00 0.00 75 1018.7
20260508130235 12 86 3.2 3.2 0.00 0.00 0.00 87 1018.9
20260508125731 12 95 3.2 3.2 0.00 0.00 0.00 88 1018.8
20260508125227 11 77 3.2 3.2 0.00 0.00 0.00 89 1018.6
20260508124726 11 93 3.2 3.2 0.00 0.00 0.00 90 1018.8
20260508124222 11 86 3.2 4.8 0.00 0.00 0.00 90 1018.5
20260508123721 11 88 3.2 3.2 0.00 0.00 0.00 89 1018.4
20260508123218 11 95 3.2 3.2 0.00 0.00 0.00 89 1018.4
20260508122714 10 75 3.2 4.8 0.00 0.00 0.00 87 1018.5
20260508122211 10 92 3.2 3.2 0.00 0.00 0.00 88 1018.5
20260508121709 10 76 3.2 4.8 0.00 0.00 0.00 88 1018.4
20260508121207 10 89 4.8 6.4 0.00 0.00 0.00 91 1018.4
20260508120704 10 95 3.2 4.8 0.00 0.00 0.00 93 1018.4
20260508120202 9 93 3.2 4.8 0.00 0.00 0.00 94 1018.4
20260508115659 9 93 3.2 3.2 0.00 0.00 0.00 95 1018.2
20260508115156 9 94 3.2 4.8 0.00 0.00 0.00 95 1018.0
20260508114653 9 86 3.2 4.8 0.00 0.00 0.00 95 1018.2
20260508114150 8 92 3.2 4.8 0.00 0.00 0.00 95 1017.9
20260508113647 8 78 3.2 3.2 0.00 0.00 0.00 95 1017.8
20260508113145 8 83 3.2 4.8 0.00 0.00 0.00 95 1017.8
20260508112641 8 95 3.2 4.8 0.00 0.00 0.00 95 1017.5
20260508112138 8 93 3.2 4.8 0.00 0.00 0.00 94 1017.5
20260508111634 8 77 3.2 3.2 0.00 0.00 0.00 94 1017.4
20260508111131 8 92 3.2 3.2 0.00 0.00 0.00 94 1017.2
20260508110629 8 85 3.2 3.2 0.00 0.00 0.00 93 1017.3
20260508110126 8 89 1.6 3.2 0.00 0.00 0.00 93 1017.1
20260508105625 8 92 3.2 3.2 0.00 0.00 0.00 94 1017.2
20260508105123 8 79 3.2 4.8 0.00 0.00 0.00 94 1017.2
20260508104620 8 102 3.2 4.8 0.00 0.00 0.00 93 1017.0
20260508104117 8 87 3.2 4.8 0.00 0.00 0.00 93 1017.0
20260508103615 8 89 3.2 3.2 0.00 0.00 0.00 93 1016.7
20260508103111 8 93 3.2 3.2 0.00 0.00 0.00 93 1016.6
20260508102609 8 86 3.2 3.2 0.00 0.00 0.00 94 1016.3
20260508102106 8 100 3.2 3.2 0.00 0.00 0.00 94 1016.5
20260508101603 8 105 1.6 3.2 0.00 0.00 0.00 94 1016.3
20260508101101 8 85 3.2 3.2 0.00 0.00 0.00 93 1016.4
20260508100558 8 93 1.6 3.2 0.00 0.00 0.00 93 1016.2
20260508100055 8 84 1.6 3.2 0.00 0.00 0.00 93 1016.3
20260508095552 8 104 3.2 3.2 0.00 0.00 0.00 93 1016.4
20260508095049 8 81 3.2 3.2 0.00 0.00 0.00 93 1016.2
20260508094546 8 96 1.6 3.2 0.00 0.00 0.00 93 1016.2
20260508094043 8 93 3.2 3.2 0.00 0.00 0.00 93 1016.1
20260508093540 8 98 1.6 3.2 0.00 0.00 0.00 94 1016.0
20260508093038 8 69 3.2 3.2 0.00 0.00 0.00 93 1016.0
20260508092535 8 86 1.6 3.2 0.00 0.00 0.00 93 1016.2
20260508092034 8 97 3.2 3.2 0.00 0.00 0.00 93 1016.0
20260508091530 8 93 3.2 3.2 0.00 0.00 0.00 93 1015.9
20260508091027 8 85 3.2 3.2 0.00 0.00 0.00 93 1016.1
20260508090525 8 84 1.6 3.2 0.00 0.00 0.00 93 1015.9
20260508090022 8 93 3.2 3.2 0.00 0.00 0.00 93 1016.0
20260508085518 8 106 3.2 3.2 0.00 0.00 0.00 93 1016.0
20260508085015 8 98 3.2 3.2 0.00 0.00 0.00 93 1015.8
20260508084512 8 100 3.2 3.2 0.00 0.00 0.00 93 1015.8
20260508084010 8 71 3.2 3.2 0.00 0.00 0.00 93 1016.1
20260508083507 8 96 3.2 3.2 0.00 0.00 0.00 92 1016.0
20260508083003 9 89 3.2 3.2 0.00 0.00 0.00 92 1015.8
20260508082459 9 79 3.2 3.2 0.00 0.00 0.00 92 1015.9
20260508081957 9 75 3.2 3.2 0.00 0.00 0.00 92 1015.7
20260508081454 9 89 3.2 3.2 0.00 0.00 0.00 90 1015.9
20260508080950 9 89 0.0 3.2 0.00 0.00 0.00 91 1015.7
20260508080448 9 112 0.0 3.2 0.00 0.00 0.00 92 1015.7
20260508075944 9 100 0.0 3.2 0.00 0.00 0.00 92 1015.6
20260508075441 9 99 3.2 3.2 0.00 0.00 0.00 93 1015.5
20260508074939 9 117 1.6 3.2 0.00 0.00 0.00 93 1015.3
20260508074436 9 127 1.6 3.2 0.00 0.00 0.00 93 1015.6
20260508073933 9 98 0.0 3.2 0.00 0.00 0.00 93 1015.5
20260508073431 9 93 4.8 4.8 0.00 0.00 0.00 94 1015.5
20260508072927 9 89 1.6 3.2 0.00 0.00 0.00 93 1015.3
20260508072423 9 95 1.6 3.2 0.00 0.00 0.00 93 1015.5
20260508071921 10 66 3.2 4.8 0.00 0.00 0.00 93 1015.5
20260508071419 9 93 3.2 3.2 0.00 0.00 0.00 93 1015.5
20260508070916 9 81 3.2 3.2 0.00 0.00 0.00 93 1015.5
20260508070414 10 140 0.0 3.2 0.00 0.00 0.00 92 1015.2
20260508065912 10 80 3.2 3.2 0.00 0.00 0.00 92 1015.3
20260508065410 10 88 3.2 3.2 0.00 0.00 0.00 92 1015.2
20260508064908 10 110 0.0 3.2 0.00 0.00 0.00 93 1015.2
20260508064405 10 88 3.2 3.2 0.00 0.00 0.00 93 1015.0
20260508063903 10 68 3.2 3.2 0.00 0.00 0.00 93 1015.1
20260508063400 10 95 3.2 3.2 0.00 0.00 0.00 93 1014.9
20260508062857 10 85 3.2 3.2 0.00 0.00 0.00 93 1015.2
20260508062354 10 93 3.2 3.2 0.00 0.00 0.00 93 1015.0
20260508061852 10 61 3.2 3.2 0.00 0.00 0.00 92 1015.0
20260508061349 10 64 3.2 3.2 0.00 0.00 0.00 93 1015.2
20260508060845 10 80 1.6 3.2 0.00 0.00 0.00 92 1015.3
20260508060343 10 86 3.2 3.2 0.00 0.00 0.00 92 1015.2
20260508055837 10 77 3.2 3.2 0.00 0.00 0.00 91 1015.3
20260508055336 10 70 3.2 3.2 0.00 0.00 0.00 91 1015.1
20260508054832 10 70 3.2 3.2 0.00 0.00 0.00 91 1015.2
20260508054330 10 127 0.0 3.2 0.00 0.00 0.00 91 1015.2
20260508053827 10 95 1.6 3.2 0.00 0.00 0.00 91 1015.3
20260508053325 10 111 1.6 3.2 0.00 0.00 0.00 91 1015.1
20260508052822 10 96 3.2 3.2 0.00 0.00 0.00 90 1015.2
20260508052318 11 116 0.0 3.2 0.00 0.00 0.00 91 1015.2
20260508051815 11 102 3.2 4.8 0.00 0.00 0.00 92 1015.2
20260508051309 11 78 3.2 4.8 0.00 0.00 0.00 92 1015.1
20260508050806 11 94 3.2 3.2 0.00 0.00 0.00 91 1015.2
20260508050304 11 81 3.2 3.2 0.00 0.00 0.00 92 1014.9
20260508045759 11 91 3.2 4.8 0.00 0.00 0.00 91 1014.8
20260508045257 11 74 3.2 4.8 0.00 0.00 0.00 90 1014.8
20260508044754 11 97 1.6 3.2 0.00 0.00 0.00 88 1014.9
20260508044251 11 91 3.2 3.2 0.00 0.00 0.00 90 1015.0
20260508043747 11 58 3.2 4.8 0.00 0.00 0.00 89 1014.9
20260508043245 11 113 0.0 3.2 0.00 0.00 0.00 87 1014.8
20260508042741 11 100 3.2 3.2 0.00 0.00 0.00 87 1014.7
20260508042239 11 78 3.2 3.2 0.00 0.00 0.00 88 1014.5
20260508041735 11 75 3.2 3.2 0.00 0.00 0.00 89 1014.7
20260508041232 11 105 3.2 4.8 0.00 0.00 0.00 88 1014.8
20260508040728 11 123 3.2 3.2 0.00 0.00 0.00 88 1014.8
20260508040226 11 124 0.0 3.2 0.00 0.00 0.00 90 1014.8
20260508035723 11 76 0.0 3.2 0.00 0.48 0.48 89 1014.8
20260508035220 11 73 3.2 3.2 0.00 0.48 0.48 89 1014.7
20260508034717 11 124 0.0 3.2 0.00 0.48 0.48 90 1014.7
20260508034214 11 91 3.2 3.2 0.00 0.48 0.48 88 1014.7
20260508033711 11 92 1.6 3.2 0.00 0.48 0.48 90 1014.7
20260508033210 12 74 3.2 3.2 0.00 0.48 0.48 90 1014.5
20260508032706 12 50 3.2 4.8 0.00 0.48 0.48 89 1014.4
20260508032203 12 74 3.2 4.8 0.00 0.48 0.48 88 1014.8
20260508031700 12 110 3.2 4.8 0.00 0.48 0.48 85 1014.7
20260508031156 12 113 1.6 3.2 0.00 0.48 0.48 86 1014.5
20260508030652 12 78 3.2 3.2 0.00 0.48 0.48 82 1014.7
20260508030151 12 118 1.6 3.2 0.00 0.48 0.48 85 1014.8
20260508025646 12 121 3.2 3.2 0.00 0.48 0.48 85 1014.5
20260508025144 12 107 0.0 3.2 0.00 0.48 0.48 82 1014.4
20260508024639 13 114 0.0 3.2 0.00 0.48 0.48 85 1014.4
20260508024137 13 114 1.6 3.2 0.00 0.48 0.48 82 1014.3
20260508023633 13 121 1.6 3.2 0.00 0.48 0.48 85 1014.3
20260508023131 12 89 0.0 3.2 0.00 0.48 0.48 81 1014.3
20260508022626 12 97 3.2 4.8 0.00 0.48 0.48 78 1014.0
20260508022124 12 105 3.2 3.2 0.00 0.48 0.48 82 1014.1
20260508021619 13 110 4.8 4.8 0.00 0.48 0.48 82 1014.1
20260508021115 13 141 3.2 3.2 0.00 0.48 0.48 80 1013.9
20260508020613 13 162 0.0 3.2 0.00 0.48 0.48 79 1013.9
20260508020111 13 97 1.6 3.2 0.00 0.48 0.48 82 1013.6
20260508015608 13 99 1.6 3.2 0.00 0.48 0.48 84 1013.7
20260508015105 13 104 0.0 4.8 0.00 0.48 0.48 84 1013.7
20260508014601 13 114 4.8 4.8 0.00 0.48 0.48 84 1013.7
20260508014057 13 92 3.2 3.2 0.00 0.48 0.48 86 1013.3
20260508013553 13 77 3.2 3.2 0.00 0.48 0.48 85 1013.3
20260508013051 14 87 3.2 3.2 0.00 0.48 0.48 83 1013.3
20260508012548 14 85 3.2 3.2 0.00 0.48 0.48 80 1013.1
20260508012045 14 83 3.2 3.2 0.00 0.48 0.48 79 1013.0
20260508011544 15 85 3.2 3.2 0.00 0.48 0.48 76 1013.0
20260508011041 15 96 3.2 3.2 0.00 0.48 0.48 78 1012.9
20260508010537 15 150 0.0 1.6 0.00 0.48 0.48 74 1012.7
20260508010035 15 345 0.0 3.2 0.00 0.48 0.48 76 1012.7
20260508005531 15 31 3.2 3.2 0.00 0.48 0.48 85 1012.5
20260508005028 15 91 3.2 4.8 0.00 0.48 0.48 92 1012.7
20260508004524 15 87 3.2 4.8 0.00 0.48 0.48 92 1012.4
20260508004021 15 64 3.2 4.8 0.00 0.48 0.48 92 1012.3
20260508003517 15 76 3.2 3.2 0.00 0.48 0.48 91 1011.9
20260508003015 15 65 1.6 3.2 0.00 0.48 0.48 91 1012.0
20260508002511 15 60 1.6 3.2 0.00 0.48 0.48 91 1011.6
20260508002008 15 65 0.0 3.2 0.00 0.48 0.48 90 1011.6
20260508001505 15 46 3.2 3.2 0.00 0.48 0.48 89 1011.7
20260508001001 15 20 3.2 3.2 0.00 0.48 0.48 89 1011.7
20260508000457 15 37 1.6 3.2 0.00 0.48 0.48 89 1011.7
20260507235954 15 40 3.2 3.2 0.00 0.48 0.48 89 1011.7
20260507235450 15 35 3.2 3.2 0.00 0.48 0.48 88 1011.6
20260507234949 15 44 1.6 3.2 0.00 0.48 0.48 88 1011.4
20260507234444 15 46 3.2 3.2 0.00 0.48 0.48 87 1011.3
20260507233941 16 34 1.6 3.2 0.00 0.48 0.48 87 1011.1
20260507233438 16 40 1.6 3.2 0.00 0.48 0.48 87 1011.2
20260507232936 16 38 1.6 3.2 0.00 0.48 0.48 87 1011.3
20260507232433 16 39 0.0 3.2 0.00 0.48 0.48 87 1011.3
20260507231930 16 35 3.2 3.2 0.00 0.48 0.48 87 1011.2
20260507231426 16 53 1.6 3.2 0.00 0.48 0.48 87 1011.2
20260507230923 16 70 1.6 3.2 0.00 0.48 0.48 87 1011.1
20260507230421 16 31 0.0 3.2 0.00 0.48 0.48 87 1011.0
20260507225920 16 358 0.0 3.2 0.00 0.48 0.48 87 1010.5
20260507225417 16 50 1.6 3.2 0.00 0.48 0.48 87 1010.6
20260507224913 16 23 0.0 3.2 0.00 0.48 0.48 86 1010.5
20260507224409 16 13 3.2 4.8 0.00 0.48 0.48 87 1010.3
20260507223906 16 51 0.0 3.2 0.00 0.48 0.48 87 1010.1
20260507223402 16 15 1.6 3.2 0.00 0.48 0.48 86 1010.1
20260507222859 16 19 3.2 3.2 0.00 0.48 0.48 87 1010.2
20260507222355 16 21 3.2 3.2 0.00 0.48 0.48 86 1010.2
20260507221852 17 22 3.2 3.2 0.00 0.48 0.48 86 1010.1
20260507221349 17 22 3.2 4.8 0.00 0.48 0.48 88 1009.9
20260507220845 17 31 1.6 3.2 0.00 0.48 0.48 87 1009.9
20260507220343 17 43 0.0 3.2 0.00 0.48 0.48 87 1009.8
20260507215840 17 3 1.6 3.2 0.00 0.48 0.48 87 1009.6
20260507215337 17 354 0.0 3.2 0.00 0.48 0.48 87 1009.5
20260507214834 17 338 0.0 3.2 0.00 0.48 0.48 87 1009.7
20260507214332 17 322 1.6 3.2 0.00 0.48 0.48 87 1009.5
20260507213832 17 41 1.6 3.2 0.00 0.48 0.48 86 1009.5
20260507213329 17 9 3.2 4.8 0.00 0.48 0.48 86 1008.8
20260507212825 17 351 1.6 4.8 0.00 0.48 0.48 88 1008.4
20260507212321 17 358 3.2 4.8 0.00 0.48 0.48 89 1008.5
20260507211818 18 354 0.0 6.4 0.00 0.48 0.48 90 1008.8
20260507211315 18 23 0.0 4.8 0.00 0.48 0.48 88 1008.9
20260507210812 18 324 0.0 3.2 0.00 0.48 0.48 88 1008.2
20260507210309 18 304 3.2 3.2 0.00 0.48 0.48 87 1008.2
20260507205805 20 345 1.6 3.2 0.00 0.48 0.48 85 1008.0
20260507205306 21 317 3.2 4.8 0.00 0.48 0.48 82 1008.2
20260507204758 22 348 0.0 3.2 0.00 0.48 0.48 87 1007.9
20260507204256 21 25 0.0 1.6 0.00 0.48 0.48 85 1007.9
20260507203753 21 262 0.0 0.0 0.00 0.48 0.48 90 1007.9
20260507203251 21 293 0.0 3.2 0.00 0.48 0.48 87 1008.3
20260507202747 22 13 0.0 1.6 0.00 0.48 0.48 89 1007.9
20260507202243 22 32 1.6 1.6 0.00 0.48 0.48 88 1008.0
20260507201738 21 116 0.0 3.2 0.00 0.48 0.48 89 1008.0
20260507201235 21 36 0.0 3.2 0.00 0.48 0.48 90 1007.9
20260507200731 21 126 0.0 3.2 0.00 0.48 0.48 90 1008.1
20260507200227 20 113 0.0 3.2 0.00 0.48 0.48 90 1008.2
20260507195724 20 87 1.6 3.2 0.00 0.48 0.48 91 1008.1
20260507195221 20 55 1.6 3.2 0.00 0.48 0.48 88 1008.5
20260507194718 20 96 3.2 6.4 0.00 0.48 0.48 86 1008.5
20260507194214 21 109 0.0 3.2 1.27 0.48 0.48 84 1008.9
20260507193711 22 56 0.0 1.6 1.07 0.46 0.46 81 1008.9
20260507193208 23 277 1.6 1.6 0.00 0.28 0.28 72 1008.7
20260507192704 24 301 0.0 3.2 0.00 0.28 0.28 69 1008.4
20260507192201 25 280 1.6 3.2 0.00 0.28 0.28 68 1008.6
20260507191656 25 226 0.0 3.2 0.00 0.28 0.28 66 1008.6
20260507191154 25 130 0.0 3.2 0.00 0.28 0.28 64 1008.6
20260507190651 25 43 3.2 8.0 0.00 0.28 0.28 60 1008.8
20260507190150 25 249 3.2 4.8 0.00 0.28 0.28 65 1008.8
20260507185648 25 165 4.8 4.8 0.00 0.28 0.28 62 1008.7
20260507185144 25 100 1.6 3.2 0.00 0.28 0.28 64 1008.4
20260507184642 24 304 0.0 4.8 0.00 0.28 0.28 70 1008.5
20260507184140 24 67 0.0 3.2 0.00 0.28 0.28 66 1008.7
20260507183636 23 235 1.6 3.2 0.00 0.28 0.28 71 1008.8
20260507183133 23 121 0.0 1.6 0.00 0.28 0.28 73 1008.8
20260507182629 23 103 1.6 3.2 0.00 0.28 0.28 70 1008.9
20260507182125 23 232 1.6 3.2 0.00 0.28 0.28 71 1009.1
20260507181622 23 53 3.2 4.8 0.00 0.28 0.28 74 1008.8
20260507181118 23 273 3.2 3.2 0.00 0.28 0.28 73 1008.8
20260507180615 22 91 4.8 6.4 0.00 0.28 0.28 73 1008.9
20260507180112 22 177 0.0 4.8 0.00 0.28 0.28 76 1009.0
20260507175608 22 59 3.2 4.8 0.00 0.28 0.28 74 1008.9
20260507175106 22 11 3.2 8.0 0.00 0.28 0.28 77 1009.0
20260507174602 21 255 3.2 3.2 0.00 0.28 0.28 78 1009.2
20260507174100 21 167 0.0 4.8 0.00 0.28 0.28 77 1009.3
20260507173557 21 94 4.8 4.8 0.00 0.28 0.28 79 1009.4
20260507173054 21 269 0.0 1.6 0.00 0.28 0.28 83 1009.3
20260507172550 21 255 3.2 3.2 0.00 0.28 0.28 82 1009.4
20260507172047 21 66 1.6 3.2 0.00 0.28 0.28 83 1009.5
20260507171542 21 115 3.2 8.0 0.00 0.28 0.28 83 1009.7
20260507171040 20 55 1.6 3.2 0.00 0.28 0.28 85 1009.6
20260507170536 20 83 0.0 6.4 0.00 0.28 0.28 84 1009.8
20260507170033 20 95 1.6 6.4 0.00 0.28 0.28 86 1009.7
20260507165529 20 55 0.0 3.2 0.00 0.28 0.28 90 1009.9
20260507165026 20 113 0.0 4.8 0.00 0.28 0.28 88 1010.0
20260507164522 20 53 0.0 3.2 0.00 0.28 0.28 88 1009.9
20260507164019 20 72 3.2 3.2 0.00 0.28 0.28 89 1010.1
20260507163516 20 40 3.2 4.8 0.00 0.28 0.28 89 1010.0
20260507163015 20 37 0.0 1.6 0.00 0.28 0.28 90 1009.7
20260507162509 20 47 0.0 3.2 0.00 0.28 0.28 89 1009.6
20260507162006 20 198 0.0 4.8 0.00 0.28 0.28 93 1009.8
20260507161502 19 110 4.8 6.4 0.00 0.28 0.28 92 1009.9
20260507160959 19 92 0.0 4.8 0.00 0.28 0.28 94 1010.0
20260507160455 19 89 3.2 4.8 0.00 0.28 0.28 94 1010.0
20260507155951 19 103 0.0 1.6 0.00 0.28 0.28 93 1010.5
20260507155447 19 112 1.6 6.4 0.00 0.28 0.28 93 1010.3
20260507154944 18 127 3.2 4.8 0.00 0.28 0.28 94 1009.8
20260507154441 18 104 0.0 1.6 0.00 0.28 0.28 94 1009.8
20260507153938 18 84 3.2 4.8 0.00 0.28 0.28 94 1009.7
20260507153435 18 104 3.2 3.2 0.00 0.28 0.28 96 1009.8
20260507152931 18 150 0.0 3.2 0.05 0.28 0.28 96 1009.3
20260507152427 18 199 1.6 1.6 0.05 0.28 0.28 98 1009.4
20260507151923 18 45 0.0 1.6 0.00 0.25 0.25 98 1009.4
20260507151420 18 224 1.6 1.6 0.00 0.25 0.25 98 1009.5
20260507150917 18 48 0.0 3.2 0.05 0.25 0.25 98 1009.6
20260507150414 17 81 0.0 3.2 0.05 0.25 0.25 98 1009.9
20260507145910 17 75 3.2 3.2 0.05 0.25 0.25 98 1010.4